GW3984 Weather Reports


Display with metric or nautical units.
time (UTC)temp
F
wind
direction
speed
MPH
gust
MPH
rain 1hr
in
rain 24hr
in
rain mn
in
humidity
%
barometer
mb
20260505060233 71 117 1.0 8.0 0.00 0.00 0.00 86 1009.8
20260505060006 70 178 2.0 9.0 0.00 0.00 0.00 85 1010.7
20260505055212 71 152 1.0 8.0 0.00 0.00 0.00 86 1010.0
20260505054505 70 160 2.0 7.0 0.00 0.00 0.00 85 1010.7
20260505054200 71 172 1.0 5.0 0.00 0.00 0.00 86 1009.9
20260505053210 71 165 1.0 6.0 0.00 0.00 0.00 85 1009.9
20260505053005 70 220 2.0 8.0 0.00 0.00 0.00 85 1010.7
20260505052138 71 179 1.0 6.0 0.00 0.00 0.00 85 1009.8
20260505051506 70 176 1.0 5.0 0.00 0.00 0.00 85 1010.5
20260505051117 71 133 1.0 5.0 0.00 0.00 0.00 85 1009.8
20260505050120 71 115 1.0 6.0 0.00 0.00 0.00 85 1009.7
20260505041511 72 136 1.0 9.0 0.00 0.00 0.00 82 1010.7
20260505040854 72 129 1.0 9.0 0.00 0.00 0.00 82 1010.0
20260505040005 72 96 3.0 11.0 0.00 0.00 0.00 81 1010.7
20260505035824 72 148 1.0 5.0 0.00 0.00 0.00 82 1010.0
20260505034840 73 189 1.0 5.0 0.00 0.00 0.00 81 1009.8
20260505034509 72 309 0.0 6.0 0.00 0.00 0.00 80 1010.4
20260505033852 73 134 1.0 5.0 0.00 0.00 0.00 80 1009.8
20260505033003 72 106 0.0 4.0 0.00 0.00 0.00 79 1010.4
20260505031746 73 172 0.0 3.0 0.00 0.00 0.00 77 1009.6
20260505031514 73 125 2.0 4.0 0.00 0.00 0.00 77 1010.2
20260505030726 74 131 0.0 3.0 0.00 0.00 0.00 76 1009.6
20260505030006 73 196 0.0 3.0 0.00 0.00 0.00 76 1010.3
20260505024608 74 136 0.0 3.0 0.00 0.00 0.00 76 1009.7
20260505024510 73 203 0.0 4.0 0.00 0.00 0.00 76 1010.4
20260505023558 74 126 0.0 3.0 0.00 0.00 0.00 75 1009.7
20260505023010 74 109 0.0 4.0 0.00 0.00 0.00 75 1010.4
20260505022549 74 139 0.0 2.0 0.00 0.00 0.00 75 1009.7
20260505021543 74 107 0.0 1.0 0.00 0.00 0.00 75 1009.7
20260505021504 74 164 0.0 2.0 0.00 0.00 0.00 74 1010.4
20260505020554 74 110 0.0 1.0 0.00 0.00 0.00 74 1009.5
20260505020013 74 102 0.0 2.0 0.00 0.00 0.00 73 1010.2
20260505015559 75 113 0.0 0.0 0.00 0.00 0.00 73 1009.4
20260505014504 75 134 0.0 4.0 0.00 0.00 0.00 72 1010.1
20260505013507 75 185 0.0 1.0 0.00 0.00 0.00 72 1009.3
20260505013006 75 122 1.0 4.0 0.00 0.00 0.00 71 1010.0
20260505012530 75 136 0.0 3.0 0.00 0.00 0.00 72 1009.3
20260505011524 76 125 0.0 6.0 0.00 0.00 0.00 71 1009.2
20260505011508 75 114 0.0 4.0 0.00 0.00 0.00 70 1009.8
20260505010542 76 143 0.0 6.0 0.00 0.00 0.00 70 1009.1
20260505010004 76 101 1.0 8.0 0.00 0.00 0.00 69 1009.9
20260505004515 77 134 2.0 8.0 0.00 0.00 0.00 67 1009.8
20260505004417 77 81 1.0 5.0 0.00 0.00 0.00 67 1009.1
20260505003006 77 192 1.0 7.0 0.00 0.00 0.00 66 1009.7
20260505002245 78 87 1.0 8.0 0.00 0.00 0.00 66 1008.9
20260505001508 78 169 3.0 10.0 0.00 0.00 0.00 64 1009.9
20260505001214 78 72 1.0 9.0 0.00 0.00 0.00 64 1009.0
20260505000143 79 96 1.0 9.0 0.00 0.00 0.00 64 1008.9
20260505000009 78 95 2.0 9.0 0.00 0.00 0.00 63 1009.8
20260504235159 79 118 1.0 9.0 0.00 0.00 0.00 64 1009.2
20260504234508 79 165 3.0 11.0 0.00 0.00 0.00 63 1010.0
20260504234150 79 129 0.0 5.0 0.00 0.00 0.00 64 1009.3
20260504233210 79 174 0.0 5.0 0.00 0.00 0.00 64 1009.5
20260504233008 79 193 2.0 7.0 0.00 0.00 0.00 63 1010.3
20260504232156 79 90 1.0 6.0 0.00 0.00 0.00 63 1009.6
20260504231510 79 193 2.0 8.0 0.00 0.00 0.00 62 1010.5
20260504230013 80 169 1.0 7.0 0.00 0.00 0.00 64 1009.9
20260504230010 79 162 1.0 9.0 0.00 0.00 0.00 63 1010.7
20260504224952 79 103 0.0 5.0 0.00 0.00 0.00 63 1010.0
20260504224510 79 346 2.0 7.0 0.00 0.00 0.00 61 1010.9
20260504224007 80 118 0.0 5.0 0.00 0.00 0.00 63 1010.2
20260504223008 79 138 1.0 7.0 0.00 0.00 0.00 62 1011.0
20260504221812 79 181 1.0 11.0 0.00 0.00 0.00 63 1010.3
20260504221510 78 101 2.0 8.0 0.00 0.00 0.00 62 1011.0
20260504220755 80 160 2.0 11.0 0.00 0.00 0.00 62 1010.4
20260504220013 80 123 4.0 10.0 0.00 0.00 0.00 60 1011.1
20260504215758 80 333 1.0 9.0 0.00 0.00 0.00 62 1010.3
20260504214509 78 134 1.0 10.0 0.00 0.00 0.00 64 1011.2
20260504213013 79 109 4.0 13.0 0.00 0.00 0.00 62 1011.3
20260504212527 80 200 1.0 6.0 0.00 0.00 0.00 62 1010.5
20260504211550 79 126 1.0 6.0 0.00 0.00 0.00 63 1010.8
20260504211512 79 116 3.0 8.0 0.00 0.00 0.00 62 1011.6
20260504210021 78 47 2.0 10.0 0.00 0.00 0.00 63 1012.0
20260504205439 79 209 1.0 8.0 0.00 0.00 0.00 64 1011.4
20260504204511 78 138 1.0 7.0 0.00 0.00 0.00 64 1012.1
20260504204452 78 150 1.0 7.0 0.00 0.00 0.00 64 1011.4
20260504203439 79 211 1.0 7.0 0.00 0.00 0.00 64 1011.6
20260504203014 78 207 3.0 9.0 0.00 0.00 0.00 64 1012.3
20260504202434 78 318 1.0 7.0 0.00 0.00 0.00 65 1011.7
20260504201506 78 180 3.0 8.0 0.00 0.00 0.00 63 1012.5
20260504201432 78 94 1.0 6.0 0.00 0.00 0.00 63 1011.8
20260504200012 78 101 2.0 7.0 0.00 0.00 0.00 63 1012.7
20260504195332 78 61 1.0 8.0 0.00 0.00 0.00 63 1012.2
20260504194514 78 185 2.0 10.0 0.00 0.00 0.00 63 1012.9
20260504194321 79 134 1.0 8.0 0.00 0.00 0.00 63 1012.2
20260504193014 80 338 1.0 9.0 0.00 0.00 0.00 64 1012.9
20260504192200 79 163 3.0 10.0 0.00 0.00 0.00 62 1012.4
20260504191516 78 117 5.0 12.0 0.00 0.00 0.00 61 1013.2
20260504191155 80 111 0.0 7.0 0.00 0.00 0.00 63 1012.5
20260504190205 81 76 1.0 6.0 0.00 0.00 0.00 59 1012.5
20260504190015 81 214 1.0 9.0 0.00 0.00 0.00 60 1013.2
20260504185152 81 160 1.0 7.0 0.00 0.00 0.00 61 1012.7
20260504184515 81 175 1.0 9.0 0.00 0.00 0.00 61 1013.4
20260504183050 81 190 0.0 5.0 0.00 0.00 0.00 58 1013.3
20260504183008 80 204 1.0 7.0 0.00 0.00 0.00 58 1014.0
20260504182032 80 1 0.0 3.0 0.00 0.00 0.00 60 1013.1
20260504181507 80 320 1.0 4.0 0.00 0.00 0.00 60 1014.0
20260504181020 80 88 0.0 5.0 0.00 0.00 0.00 61 1013.4
20260504180018 81 200 0.0 5.0 0.00 0.00 0.00 58 1014.1
20260504175955 81 56 1.0 8.0 0.00 0.00 0.00 59 1013.5
20260504174940 79 53 1.0 8.0 0.00 0.00 0.00 62 1013.5
20260504174517 78 138 2.0 9.0 0.00 0.00 0.00 64 1014.2
20260504173928 78 113 1.0 8.0 0.00 0.00 0.00 66 1013.7
20260504173019 77 89 3.0 10.0 0.00 0.00 0.00 61 1014.4
20260504172920 78 125 1.0 10.0 0.00 0.00 0.00 62 1013.7
20260504171916 78 316 2.0 10.0 0.00 0.00 0.00 64 1013.8
20260504171516 77 215 3.0 12.0 0.00 0.00 0.00 63 1014.7
20260504170902 76 189 2.0 7.0 0.00 0.00 0.00 62 1014.0
20260504150504 69 129 0.0 5.0 0.00 0.00 0.00 80 1015.1
20260504140458 66 127 1.0 5.0 0.00 0.00 0.00 80 1015.0
20260504130124 63 125 0.0 1.0 0.00 0.00 0.00 83 1015.0
20260504081524 62 159 0.0 2.0 0.00 0.00 0.00 79 1016.2
20260504081242 62 118 0.0 0.0 0.00 0.00 0.00 79 1015.5